Content
SEND FEEDBACK

Daily
Averages
Monthly
Summary
United States of America

WICHITA, KANSAS


Home > North America > United States > Kansas
Elevation: 402 meters     Latitude: 37 39N     Longitude: 097 26W

WEATHER
 
SELECT A DAY
Number of Records: 191,789;   Date Range: 1/1/95 - 7/20/14
 
SHARE

PRINT THIS DATA

[ ← Previous Day ]
WEATHER ALMANAC - 31 JANUARY, 2013
[ Next Day → ]
[ °F ]   °C
Weather ElementAverageHighLow
Temperature-4.1 °C-0.6 °C (9:53 am)-8.3 °C (8:53 pm)
Dewpoint-9.4 °C-5.6 °C (8:53 am)-14.4 °C (5:53 pm)
Humidity67.6 %81 % (1:53 am)49 % (4:53 pm)
Barometer1024.4 hPa1032.5 hPa (7:53 pm)1015.2 hPa (4:53 am)
Wind Speed19.6 km/h38.9 km/h (11:53 am)
Wind Gust50.1 km/h (11:53 am)
Weather ElementAverage
Visibility13.2 km
Wind DirectionS (184.6 °)

Weather ElementTotal
Precipitation1.02 mm
Heating Degree Days22.8 (Base 18.3)
Averaged from 28 records on 31 January, 2013
WEATHER CONDITIONS BREAKOUT
WIND DIRECTION BREAKOUT
WEATHER BY HOUR - 31 JANUARY, 2013
[ °F ]   °C
Local TimeTemperatureDewpointHumidityBarometerVisibilityWind DirectionWind SpeedGust SpeedPrecipitationEventsConditions
1:53 AM-6.1 °C-8.9 °C81 %1016.3 hPa16.1 kmSSW (210°)13 km/hScattered Clouds
2:53 AM-5.6 °C-8.9 °C78 %1016.6 hPa16.1 kmSW (220°)7.4 km/hPartly Cloudy
3:53 AM-6.1 °C-9.4 °C78 %1016.3 hPa16.1 kmWSW (250°)7.4 km/hPartly Cloudy
4:53 AM-6 °C-10 °C74 %1015.2 hPa16.1 kmCalmPartly Cloudy
5:53 AM-4.4 °C-8.9 °C71 %1016.6 hPa16.1 kmWNW (290°)5.6 km/hScattered Clouds
6:53 AM-2.8 °C-7.2 °C72 %1017.3 hPa16.1 kmWNW (300°)5.6 km/hMostly Cloudy
7:53 AM-1.7 °C-6.1 °C72 %1018.3 hPa16.1 kmNorth (350°)11.1 km/hMostly Cloudy
8:53 AM-1.1 °C-5.6 °C72 %1020 hPa16.1 kmNorth (360°)18.5 km/hMostly Cloudy
9:53 AM-0.6 °C-5.6 °C69 %1021.7 hPa16.1 kmNorth (350°)18.5 km/hOvercast
10:53 AM-1.1 °C-6.7 °C66 %1024 hPa16.1 kmNorth (360°)29.6 km/hOvercast
11:41 AM-3 °C-6 °C80 %1023 hPa0.8 kmNorth (10°)29.6 km/h35.2 km/hSnowSnow
11:53 AM-2.8 °C-5.6 °C81 %1024.7 hPa0.8 kmNorth (10°)38.9 km/h50.1 km/h0 mmSnowLight Snow
12:00 PM-3 °C-6 °C80 %1023 hPa0.8 kmNorth (10°)25.9 km/h50.1 km/h0 mmSnowLight Snow
12:11 PM-2 °C-6 °C74 %1023.4 hPa1.6 kmNorth (10°)25.9 km/h40.7 km/h0.25 mmSnowLight Snow
12:25 PM-3 °C-7 °C74 %1023.4 hPa1.6 kmNNE (20°)33.3 km/h44.4 km/h0.25 mmSnowLight Snow
12:33 PM-2 °C-7 °C69 %1023.7 hPa9.7 kmNorth (10°)29.6 km/h42.6 km/h0.25 mmSnowLight Snow
12:53 PM-1.7 °C-7.2 °C67 %1026.1 hPa16.1 kmNorth (360°)29.6 km/h44.4 km/h0.25 mmOvercast
1:53 PM-2 °C-8 °C64 %1024.7 hPa16.1 kmNorth (10°)33.3 km/h44.4 km/hOvercast
2:53 PM-2.2 °C-10 °C56 %1026.8 hPa16.1 kmNorth (10°)38.9 km/h50.1 km/hMostly Cloudy
3:53 PM-2.8 °C-11.7 °C51 %1027.8 hPa16.1 kmNorth (360°)33.3 km/h46.3 km/hMostly Cloudy
4:53 PM-3.3 °C-12.8 °C49 %1028.4 hPa16.1 kmNorth (360°)20.4 km/h38.9 km/hPartly Cloudy
5:53 PM-5.6 °C-14.4 °C51 %1029.8 hPa16.1 kmNorth (360°)25.9 km/hPartly Cloudy
6:53 PM-6.7 °C-13.9 °C57 %1031.2 hPa16.1 kmNorth (350°)13 km/hPartly Cloudy
7:53 PM-6.7 °C-14.4 °C55 %1032.5 hPa16.1 kmNorth (360°)13 km/hClear
8:53 PM-8.3 °C-13.9 °C65 %1032.5 hPa16.1 kmNNE (30°)11.1 km/hClear
9:53 PM-7.8 °C-13.9 °C62 %1032.5 hPa16.1 kmNE (50°)11.1 km/hScattered Clouds
10:53 PM-7.8 °C-13.3 °C65 %1032.2 hPa16.1 kmENE (70°)9.3 km/hScattered Clouds
11:53 PM-7.2 °C-13.9 °C59 %1031.5 hPa16.1 kmEast (90°)11.1 km/hOvercast
Hourly data recorded from KICT, located 0 kilometers away from Wichita, Kansas







STORIES FROM OUR PARTNERS